| time (UTC) | temp F | wind direction | speed MPH | gust MPH | rain 1hr in | rain 24hr in | rain mn in | humidity % | barometer mb |
| 20260903062503 | 50 | 164 | 3.0 | 6.0 | 0.00 | 0.00 | 0.00 | 87 | 1010.6 |
| 20260903062004 | 50 | 159 | 4.0 | 6.0 | 0.00 | 0.00 | 0.00 | 88 | 1010.7 |
| 20260903061503 | 50 | 161 | 3.0 | 6.0 | 0.00 | 0.00 | 0.00 | 87 | 1010.5 |
| 20260903061003 | 49 | 179 | 3.0 | 6.0 | 0.00 | 0.00 | 0.00 | 88 | 1010.5 |
| 20260903060504 | 49 | 188 | 3.0 | 6.0 | 0.00 | 0.00 | 0.00 | 89 | 1010.8 |
| 20260903060213 | 49 | 187 | 3.0 | 7.0 | 0.00 | 0.00 | 0.00 | 89 | 1010.7 |
| 20260903055503 | 48 | 171 | 4.0 | 8.0 | 0.00 | 0.00 | 0.00 | 90 | 1010.8 |
| 20260903055003 | 48 | 167 | 4.0 | 9.0 | 0.00 | 0.00 | 0.00 | 91 | 1010.7 |
| 20260903054714 | 48 | 167 | 4.0 | 9.0 | 0.00 | 0.00 | 0.00 | 91 | 1010.8 |
| 20260903054003 | 47 | 148 | 3.0 | 4.0 | 0.00 | 0.00 | 0.00 | 93 | 1010.8 |
| 20260903053503 | 47 | 144 | 3.0 | 6.0 | 0.00 | 0.00 | 0.00 | 94 | 1010.6 |
| 20260903053003 | 46 | 151 | 3.0 | 6.0 | 0.00 | 0.00 | 0.00 | 95 | 1010.8 |
| 20260903052714 | 46 | 141 | 2.0 | 6.0 | 0.00 | 0.00 | 0.00 | 96 | 1010.8 |
| 20260903052213 | 46 | 108 | 1.0 | 4.0 | 0.00 | 0.00 | 0.00 | 96 | 1010.8 |
| 20260903051714 | 46 | 100 | 1.0 | 4.0 | 0.00 | 0.00 | 0.00 | 96 | 1010.9 |
| 20260903051213 | 45 | 123 | 1.0 | 4.0 | 0.00 | 0.00 | 0.00 | 97 | 1010.8 |
| 20260903050503 | 45 | 132 | 0.0 | 3.0 | 0.00 | 0.00 | 0.00 | 96 | 1010.8 |
| 20260903050213 | 45 | 68 | 0.0 | 2.0 | 0.00 | 0.00 | 0.00 | 96 | 1011.0 |
| 20260903045503 | 45 | 59 | 0.0 | 1.0 | 0.00 | 0.00 | 0.00 | 95 | 1010.8 |
| 20260903045003 | 46 | 43 | 0.0 | 2.0 | 0.00 | 0.00 | 0.00 | 95 | 1010.8 |
| 20260903044714 | 46 | 30 | 0.0 | 2.0 | 0.00 | 0.00 | 0.00 | 95 | 1011.0 |
| 20260903044003 | 46 | 27 | 1.0 | 2.0 | 0.00 | 0.00 | 0.00 | 95 | 1010.9 |
| 20260903043503 | 46 | 72 | 1.0 | 2.0 | 0.00 | 0.00 | 0.00 | 94 | 1010.7 |
| 20260903043003 | 47 | 106 | 0.0 | 2.0 | 0.00 | 0.00 | 0.00 | 93 | 1010.9 |
| 20260903042503 | 47 | 98 | 0.0 | 3.0 | 0.00 | 0.00 | 0.00 | 93 | 1010.9 |
| 20260903042004 | 47 | 128 | 0.0 | 3.0 | 0.00 | 0.00 | 0.00 | 93 | 1010.6 |
| 20260903041503 | 48 | 152 | 1.0 | 3.0 | 0.00 | 0.00 | 0.00 | 92 | 1010.9 |
| 20260903041003 | 48 | 160 | 1.0 | 3.0 | 0.00 | 0.00 | 0.00 | 92 | 1011.0 |
| 20260903040503 | 48 | 173 | 2.0 | 3.0 | 0.00 | 0.00 | 0.00 | 92 | 1010.9 |
| 20260903040003 | 48 | 178 | 2.0 | 3.0 | 0.00 | 0.00 | 0.00 | 91 | 1010.9 |
| 20260903035503 | 49 | 185 | 1.0 | 4.0 | 0.00 | 0.00 | 0.00 | 91 | 1011.1 |
| 20260903035003 | 49 | 186 | 1.0 | 4.0 | 0.00 | 0.00 | 0.00 | 91 | 1010.8 |
| 20260903034504 | 49 | 183 | 1.0 | 4.0 | 0.00 | 0.00 | 0.00 | 90 | 1010.9 |
| 20260903034003 | 49 | 190 | 2.0 | 6.0 | 0.00 | 0.00 | 0.00 | 89 | 1010.8 |
| 20260903033503 | 49 | 195 | 2.0 | 7.0 | 0.00 | 0.00 | 0.00 | 89 | 1010.8 |
| 20260903033214 | 49 | 197 | 2.0 | 7.0 | 0.00 | 0.00 | 0.00 | 89 | 1010.8 |
| 20260903032713 | 49 | 197 | 2.0 | 7.0 | 0.00 | 0.00 | 0.00 | 89 | 1010.9 |
| 20260903032214 | 49 | 200 | 2.0 | 4.0 | 0.00 | 0.00 | 0.00 | 89 | 1011.0 |
| 20260903031503 | 49 | 195 | 2.0 | 5.0 | 0.00 | 0.00 | 0.00 | 88 | 1011.1 |
| 20260903031003 | 49 | 199 | 2.0 | 6.0 | 0.00 | 0.00 | 0.00 | 87 | 1010.7 |
| 20260903030713 | 50 | 201 | 2.0 | 6.0 | 0.00 | 0.00 | 0.00 | 87 | 1010.9 |
| 20260903030214 | 50 | 203 | 2.0 | 6.0 | 0.00 | 0.00 | 0.00 | 86 | 1010.8 |
| 20260903025503 | 50 | 215 | 2.0 | 5.0 | 0.00 | 0.00 | 0.00 | 86 | 1010.9 |
| 20260903025214 | 50 | 218 | 2.0 | 5.0 | 0.00 | 0.00 | 0.00 | 86 | 1010.8 |
| 20260903024503 | 50 | 213 | 2.0 | 11.0 | 0.00 | 0.00 | 0.00 | 88 | 1011.1 |
| 20260903024214 | 50 | 222 | 2.0 | 11.0 | 0.00 | 0.00 | 0.00 | 88 | 1011.1 |
| 20260903023713 | 50 | 223 | 2.0 | 11.0 | 0.00 | 0.00 | 0.00 | 90 | 1011.0 |
| 20260903023003 | 49 | 212 | 2.0 | 6.0 | 0.00 | 0.00 | 0.00 | 91 | 1011.2 |
| 20260903022504 | 49 | 197 | 3.0 | 6.0 | 0.00 | 0.00 | 0.00 | 91 | 1011.1 |
| 20260903022003 | 49 | 200 | 4.0 | 6.0 | 0.00 | 0.00 | 0.00 | 91 | 1011.3 |
| 20260903021715 | 49 | 199 | 4.0 | 6.0 | 0.00 | 0.00 | 0.00 | 90 | 1011.2 |
| 20260903021003 | 49 | 193 | 3.0 | 6.0 | 0.00 | 0.00 | 0.00 | 92 | 1011.4 |
| 20260903020503 | 48 | 190 | 2.0 | 6.0 | 0.00 | 0.00 | 0.00 | 93 | 1011.3 |
| 20260903020003 | 48 | 187 | 2.0 | 4.0 | 0.00 | 0.00 | 0.00 | 94 | 1011.3 |
| 20260903015503 | 48 | 192 | 2.0 | 4.0 | 0.00 | 0.00 | 0.00 | 94 | 1011.4 |
| 20260903015214 | 48 | 182 | 2.0 | 4.0 | 0.00 | 0.00 | 0.00 | 94 | 1011.4 |
| 20260903014503 | 48 | 191 | 2.0 | 5.0 | 0.00 | 0.00 | 0.00 | 94 | 1011.4 |
| 20260903014003 | 48 | 178 | 2.0 | 5.0 | 0.00 | 0.00 | 0.00 | 94 | 1011.4 |
| 20260903013504 | 48 | 167 | 2.0 | 4.0 | 0.00 | 0.00 | 0.00 | 95 | 1011.5 |
| 20260903013003 | 48 | 190 | 2.0 | 4.0 | 0.00 | 0.00 | 0.00 | 95 | 1011.4 |
| 20260903012503 | 48 | 195 | 1.0 | 4.0 | 0.00 | 0.00 | 0.00 | 95 | 1011.5 |
| 20260903012213 | 47 | 181 | 1.0 | 3.0 | 0.00 | 0.00 | 0.00 | 95 | 1011.3 |
| 20260903011503 | 48 | 168 | 1.0 | 4.0 | 0.00 | 0.00 | 0.00 | 95 | 1011.5 |
| 20260903011003 | 48 | 162 | 1.0 | 4.0 | 0.00 | 0.00 | 0.00 | 94 | 1011.3 |
| 20260903010504 | 48 | 160 | 1.0 | 4.0 | 0.00 | 0.00 | 0.00 | 94 | 1011.5 |
| 20260903010003 | 48 | 154 | 1.0 | 4.0 | 0.00 | 0.00 | 0.00 | 94 | 1011.7 |
| 20260903005503 | 48 | 151 | 1.0 | 4.0 | 0.00 | 0.00 | 0.00 | 93 | 1011.8 |
| 20260903005213 | 48 | 172 | 2.0 | 5.0 | 0.00 | 0.00 | 0.00 | 93 | 1011.8 |
| 20260903004504 | 49 | 192 | 2.0 | 5.0 | 0.00 | 0.00 | 0.00 | 93 | 1011.5 |
| 20260903004003 | 49 | 201 | 2.0 | 4.0 | 0.00 | 0.00 | 0.00 | 92 | 1011.7 |
| 20260903003503 | 49 | 197 | 3.0 | 5.0 | 0.00 | 0.00 | 0.00 | 92 | 1011.6 |
| 20260903003003 | 49 | 191 | 2.0 | 5.0 | 0.00 | 0.00 | 0.00 | 92 | 1011.7 |
| 20260903002714 | 49 | 192 | 2.0 | 5.0 | 0.00 | 0.00 | 0.00 | 92 | 1011.6 |
| 20260903002213 | 49 | 204 | 2.0 | 5.0 | 0.00 | 0.00 | 0.00 | 91 | 1011.5 |
| 20260903001503 | 49 | 203 | 2.0 | 5.0 | 0.00 | 0.00 | 0.00 | 92 | 1011.9 |
| 20260903001003 | 49 | 200 | 2.0 | 5.0 | 0.00 | 0.00 | 0.00 | 92 | 1011.7 |
| 20260903000503 | 49 | 206 | 2.0 | 5.0 | 0.00 | 0.00 | 0.00 | 92 | 1011.7 |
| 20260903000004 | 49 | 211 | 2.0 | 5.0 | 0.00 | 0.00 | 0.00 | 92 | 1011.7 |
| 20260902235503 | 49 | 195 | 2.0 | 6.0 | 0.00 | 0.00 | 0.00 | 92 | 1011.6 |
| 20260902235003 | 49 | 192 | 2.0 | 6.0 | 0.00 | 0.00 | 0.00 | 93 | 1011.5 |
| 20260902234503 | 49 | 201 | 2.0 | 4.0 | 0.00 | 0.00 | 0.00 | 93 | 1011.7 |
| 20260902234003 | 49 | 193 | 2.0 | 5.0 | 0.00 | 0.00 | 0.00 | 92 | 1011.8 |
| 20260902233503 | 49 | 185 | 3.0 | 5.0 | 0.00 | 0.00 | 0.00 | 92 | 1011.6 |
| 20260902233003 | 49 | 190 | 3.0 | 7.0 | 0.00 | 0.00 | 0.00 | 92 | 1011.5 |
| 20260902232503 | 49 | 214 | 2.0 | 7.0 | 0.00 | 0.00 | 0.00 | 91 | 1011.6 |
| 20260902232003 | 50 | 216 | 2.0 | 7.0 | 0.00 | 0.00 | 0.00 | 91 | 1011.8 |
| 20260902231503 | 50 | 190 | 3.0 | 7.0 | 0.00 | 0.00 | 0.00 | 91 | 1011.8 |
| 20260902231003 | 50 | 189 | 3.0 | 7.0 | 0.00 | 0.00 | 0.00 | 91 | 1011.7 |
| 20260902230714 | 50 | 192 | 3.0 | 7.0 | 0.00 | 0.00 | 0.00 | 91 | 1011.6 |
| 20260902230212 | 50 | 200 | 3.0 | 7.0 | 0.00 | 0.00 | 0.00 | 91 | 1011.6 |
| 20260902225503 | 50 | 203 | 3.0 | 6.0 | 0.00 | 0.00 | 0.00 | 91 | 1011.7 |
| 20260902225212 | 50 | 204 | 3.0 | 6.0 | 0.00 | 0.00 | 0.00 | 91 | 1011.7 |
| 20260902224504 | 50 | 188 | 3.0 | 6.0 | 0.00 | 0.00 | 0.00 | 91 | 1011.8 |
| 20260902224212 | 50 | 192 | 3.0 | 6.0 | 0.00 | 0.00 | 0.00 | 91 | 1011.8 |
| 20260902223713 | 50 | 202 | 3.0 | 6.0 | 0.00 | 0.00 | 0.00 | 91 | 1011.7 |
| 20260902223003 | 50 | 191 | 3.0 | 5.0 | 0.00 | 0.00 | 0.00 | 91 | 1011.7 |
| 20260902222503 | 51 | 191 | 3.0 | 5.0 | 0.00 | 0.00 | 0.00 | 91 | 1011.7 |
| 20260902222004 | 51 | 187 | 3.0 | 7.0 | 0.00 | 0.00 | 0.00 | 90 | 1011.8 |
| 20260902221503 | 51 | 193 | 2.0 | 7.0 | 0.00 | 0.00 | 0.00 | 89 | 1011.8 |
| 20260902221214 | 51 | 196 | 3.0 | 7.0 | 0.00 | 0.00 | 0.00 | 89 | 1011.9 |
| 20260902220503 | 51 | 198 | 3.0 | 7.0 | 0.00 | 0.00 | 0.00 | 88 | 1011.8 |
| 20260902220004 | 51 | 200 | 3.0 | 7.0 | 0.00 | 0.00 | 0.00 | 88 | 1011.7 |
| 20260902215503 | 52 | 192 | 3.0 | 7.0 | 0.00 | 0.00 | 0.00 | 87 | 1011.8 |
| 20260902215214 | 52 | 196 | 3.0 | 7.0 | 0.00 | 0.00 | 0.00 | 87 | 1011.9 |
| 20260902214713 | 52 | 202 | 3.0 | 8.0 | 0.00 | 0.00 | 0.00 | 87 | 1011.8 |
| 20260902214214 | 52 | 217 | 3.0 | 8.0 | 0.00 | 0.00 | 0.00 | 87 | 1011.7 |
| 20260902213503 | 52 | 221 | 3.0 | 7.0 | 0.00 | 0.00 | 0.00 | 88 | 1011.7 |
| 20260902213003 | 52 | 213 | 3.0 | 8.0 | 0.00 | 0.00 | 0.00 | 88 | 1011.7 |
| 20260902212503 | 52 | 206 | 4.0 | 8.0 | 0.00 | 0.00 | 0.00 | 88 | 1011.8 |
| 20260902212003 | 52 | 211 | 3.0 | 7.0 | 0.00 | 0.00 | 0.00 | 89 | 1011.6 |
| 20260902211503 | 52 | 191 | 3.0 | 13.0 | 0.00 | 0.00 | 0.00 | 89 | 1011.6 |
| 20260902211003 | 52 | 186 | 4.0 | 13.0 | 0.00 | 0.00 | 0.00 | 89 | 1011.6 |
| 20260902210503 | 52 | 216 | 3.0 | 7.0 | 0.00 | 0.00 | 0.00 | 89 | 1011.6 |
| 20260902210003 | 52 | 204 | 4.0 | 10.0 | 0.00 | 0.00 | 0.00 | 90 | 1011.6 |
| 20260902205503 | 52 | 194 | 4.0 | 10.0 | 0.00 | 0.00 | 0.00 | 89 | 1011.8 |
| 20260902205214 | 52 | 205 | 3.0 | 10.0 | 0.00 | 0.00 | 0.00 | 90 | 1011.6 |
| 20260902204503 | 52 | 217 | 3.0 | 7.0 | 0.00 | 0.00 | 0.00 | 90 | 1011.9 |
| 20260902204003 | 52 | 207 | 3.0 | 6.0 | 0.00 | 0.00 | 0.00 | 91 | 1011.6 |
| 20260902203504 | 52 | 197 | 3.0 | 6.0 | 0.00 | 0.00 | 0.00 | 92 | 1011.9 |
| 20260902203003 | 52 | 203 | 2.0 | 6.0 | 0.00 | 0.00 | 0.00 | 92 | 1011.9 |
| 20260902202503 | 52 | 224 | 2.0 | 6.0 | 0.00 | 0.00 | 0.00 | 92 | 1012.0 |
| 20260902202214 | 52 | 222 | 2.0 | 6.0 | 0.00 | 0.00 | 0.00 | 91 | 1011.9 |
| 20260902201504 | 52 | 197 | 3.0 | 6.0 | 0.00 | 0.00 | 0.00 | 92 | 1012.0 |
| 20260902201003 | 52 | 191 | 2.0 | 4.0 | 0.00 | 0.00 | 0.00 | 92 | 1011.9 |
| 20260902200503 | 52 | 205 | 1.0 | 4.0 | 0.00 | 0.00 | 0.00 | 91 | 1011.9 |
| 20260902200213 | 52 | 204 | 1.0 | 4.0 | 0.00 | 0.00 | 0.00 | 91 | 1011.9 |
| 20260902195503 | 52 | 201 | 1.0 | 4.0 | 0.00 | 0.00 | 0.00 | 90 | 1011.9 |
| 20260902195003 | 52 | 204 | 1.0 | 4.0 | 0.00 | 0.00 | 0.00 | 91 | 1011.8 |
| 20260902194503 | 52 | 190 | 1.0 | 4.0 | 0.00 | 0.00 | 0.00 | 90 | 1012.0 |
| 20260902194003 | 52 | 188 | 1.0 | 4.0 | 0.00 | 0.00 | 0.00 | 90 | 1011.8 |
| 20260902193714 | 52 | 191 | 1.0 | 4.0 | 0.00 | 0.00 | 0.00 | 90 | 1011.9 |
| 20260902193213 | 52 | 207 | 0.0 | 2.0 | 0.00 | 0.00 | 0.00 | 90 | 1011.9 |
| 20260902192504 | 52 | 228 | 0.0 | 2.0 | 0.00 | 0.00 | 0.00 | 89 | 1011.9 |
| 20260902192004 | 52 | 206 | 0.0 | 2.0 | 0.00 | 0.00 | 0.00 | 89 | 1011.9 |
| 20260902191504 | 53 | 231 | 0.0 | 2.0 | 0.00 | 0.00 | 0.00 | 88 | 1011.9 |
| 20260902191003 | 53 | 218 | 1.0 | 3.0 | 0.00 | 0.00 | 0.00 | 87 | 1011.9 |
| 20260902190714 | 53 | 206 | 1.0 | 3.0 | 0.00 | 0.00 | 0.00 | 87 | 1011.9 |
| 20260902190213 | 53 | 186 | 1.0 | 3.0 | 0.00 | 0.00 | 0.00 | 87 | 1011.8 |
| 20260902185714 | 54 | 218 | 1.0 | 4.0 | 0.00 | 0.00 | 0.00 | 85 | 1011.9 |
| 20260902185003 | 54 | 208 | 1.0 | 4.0 | 0.00 | 0.00 | 0.00 | 84 | 1011.8 |
| 20260902184503 | 54 | 193 | 1.0 | 2.0 | 0.00 | 0.00 | 0.00 | 84 | 1011.7 |
| 20260902184003 | 54 | 189 | 1.0 | 3.0 | 0.00 | 0.00 | 0.00 | 83 | 1011.9 |
| 20260902183504 | 54 | 210 | 1.0 | 3.0 | 0.00 | 0.00 | 0.00 | 82 | 1012.0 |
| 20260902183003 | 55 | 213 | 1.0 | 3.0 | 0.00 | 0.00 | 0.00 | 82 | 1011.8 |
| 20260902182503 | 55 | 227 | 1.0 | 4.0 | 0.00 | 0.00 | 0.00 | 81 | 1011.7 |
| 20260902182004 | 55 | 240 | 1.0 | 4.0 | 0.00 | 0.00 | 0.00 | 81 | 1012.0 |
| 20260902181504 | 56 | 227 | 1.0 | 4.0 | 0.00 | 0.00 | 0.00 | 80 | 1011.8 |
| 20260902181003 | 56 | 231 | 2.0 | 4.0 | 0.00 | 0.00 | 0.00 | 79 | 1011.8 |
| 20260902180714 | 56 | 237 | 1.0 | 4.0 | 0.00 | 0.00 | 0.00 | 79 | 1012.0 |
| 20260902180006 | 56 | 257 | 1.0 | 4.0 | 0.00 | 0.00 | 0.00 | 80 | 1011.5 |
| 20260902175714 | 56 | 247 | 1.0 | 4.0 | 0.00 | 0.00 | 0.00 | 79 | 1011.8 |
| 20260902175003 | 57 | 220 | 1.0 | 4.0 | 0.00 | 0.00 | 0.00 | 78 | 1011.5 |
| 20260902174503 | 57 | 213 | 2.0 | 7.0 | 0.00 | 0.00 | 0.00 | 78 | 1011.6 |
| 20260902174212 | 57 | 222 | 2.0 | 7.0 | 0.00 | 0.00 | 0.00 | 77 | 1011.8 |
| 20260902173504 | 58 | 244 | 2.0 | 5.0 | 0.00 | 0.00 | 0.00 | 78 | 1011.6 |
| 20260902173004 | 58 | 221 | 2.0 | 5.0 | 0.00 | 0.00 | 0.00 | 78 | 1011.5 |
| 20260902172713 | 58 | 251 | 2.0 | 5.0 | 0.00 | 0.00 | 0.00 | 77 | 1011.5 |
| 20260902172214 | 58 | 249 | 2.0 | 5.0 | 0.00 | 0.00 | 0.00 | 77 | 1011.4 |
| 20260902171503 | 59 | 253 | 2.0 | 5.0 | 0.00 | 0.00 | 0.00 | 78 | 1011.7 |
| 20260902171003 | 59 | 235 | 2.0 | 5.0 | 0.00 | 0.00 | 0.00 | 77 | 1011.4 |
| 20260902170503 | 59 | 225 | 2.0 | 7.0 | 0.00 | 0.00 | 0.00 | 78 | 1011.4 |
| 20260902170004 | 59 | 222 | 2.0 | 7.0 | 0.00 | 0.00 | 0.00 | 80 | 1011.4 |
| 20260902165503 | 60 | 227 | 3.0 | 7.0 | 0.00 | 0.00 | 0.00 | 81 | 1011.5 |
| 20260902165214 | 59 | 221 | 3.0 | 7.0 | 0.00 | 0.00 | 0.00 | 81 | 1011.3 |
| 20260902164503 | 60 | 233 | 3.0 | 10.0 | 0.00 | 0.00 | 0.00 | 80 | 1011.3 |
| 20260902164003 | 60 | 220 | 4.0 | 10.0 | 0.00 | 0.00 | 0.00 | 81 | 1011.5 |
| 20260902163503 | 60 | 205 | 5.0 | 10.0 | 0.00 | 0.00 | 0.00 | 80 | 1011.2 |
| 20260902163214 | 60 | 212 | 4.0 | 9.0 | 0.00 | 0.00 | 0.00 | 80 | 1011.3 |
| 20260902162713 | 60 | 213 | 4.0 | 9.0 | 0.00 | 0.00 | 0.00 | 82 | 1011.4 |
| 20260902162214 | 60 | 223 | 3.0 | 8.0 | 0.00 | 0.00 | 0.00 | 81 | 1011.2 |
| 20260902161504 | 60 | 233 | 3.0 | 8.0 | 0.00 | 0.00 | 0.00 | 80 | 1011.3 |
| 20260902161003 | 60 | 228 | 3.0 | 8.0 | 0.00 | 0.00 | 0.00 | 82 | 1011.3 |
| 20260902160504 | 60 | 232 | 3.0 | 6.0 | 0.00 | 0.00 | 0.00 | 82 | 1011.3 |
| 20260902160004 | 60 | 232 | 3.0 | 11.0 | 0.00 | 0.00 | 0.00 | 84 | 1011.4 |
| 20260902155503 | 60 | 235 | 3.0 | 11.0 | 0.00 | 0.00 | 0.00 | 83 | 1011.4 |
| 20260902155004 | 60 | 232 | 3.0 | 11.0 | 0.00 | 0.00 | 0.00 | 83 | 1011.3 |
| 20260902154713 | 60 | 233 | 3.0 | 9.0 | 0.00 | 0.00 | 0.00 | 82 | 1011.4 |
| 20260902154003 | 61 | 224 | 4.0 | 9.0 | 0.00 | 0.00 | 0.00 | 81 | 1011.5 |
| 20260902153503 | 61 | 232 | 4.0 | 9.0 | 0.00 | 0.00 | 0.00 | 80 | 1011.5 |
| 20260902153003 | 60 | 228 | 3.0 | 9.0 | 0.00 | 0.00 | 0.00 | 81 | 1011.3 |
| 20260902152503 | 60 | 211 | 3.0 | 8.0 | 0.00 | 0.00 | 0.00 | 82 | 1011.4 |
| 20260902152003 | 60 | 224 | 4.0 | 9.0 | 0.00 | 0.00 | 0.00 | 82 | 1011.4 |
| 20260902151713 | 60 | 229 | 4.0 | 9.0 | 0.00 | 0.00 | 0.00 | 82 | 1011.4 |
| 20260902151004 | 60 | 211 | 4.0 | 9.0 | 0.00 | 0.00 | 0.00 | 82 | 1011.6 |
| 20260902150504 | 60 | 218 | 3.0 | 9.0 | 0.00 | 0.00 | 0.00 | 82 | 1011.4 |
| 20260902150214 | 60 | 222 | 3.0 | 9.0 | 0.00 | 0.00 | 0.00 | 83 | 1011.6 |
| 20260902145712 | 60 | 228 | 3.0 | 7.0 | 0.00 | 0.00 | 0.00 | 84 | 1011.6 |
| 20260902145004 | 60 | 217 | 3.0 | 8.0 | 0.00 | 0.00 | 0.00 | 85 | 1011.6 |
| 20260902144503 | 60 | 209 | 3.0 | 8.0 | 0.00 | 0.00 | 0.00 | 86 | 1011.6 |
| 20260902144213 | 60 | 215 | 2.0 | 5.0 | 0.00 | 0.00 | 0.00 | 87 | 1011.6 |
| 20260902143504 | 60 | 223 | 2.0 | 6.0 | 0.00 | 0.00 | 0.00 | 87 | 1011.4 |
| 20260902143004 | 60 | 232 | 2.0 | 6.0 | 0.00 | 0.00 | 0.00 | 86 | 1011.6 |
| 20260902142504 | 60 | 235 | 3.0 | 6.0 | 0.00 | 0.00 | 0.00 | 85 | 1011.6 |
| 20260902142003 | 60 | 238 | 3.0 | 6.0 | 0.00 | 0.00 | 0.00 | 84 | 1011.7 |
| 20260902141503 | 60 | 244 | 2.0 | 6.0 | 0.00 | 0.00 | 0.00 | 83 | 1011.6 |
| 20260902141213 | 60 | 225 | 3.0 | 8.0 | 0.00 | 0.00 | 0.00 | 83 | 1011.7 |
| 20260902140504 | 61 | 213 | 5.0 | 13.0 | 0.00 | 0.00 | 0.00 | 82 | 1011.7 |
| 20260902140213 | 61 | 216 | 5.0 | 13.0 | 0.00 | 0.00 | 0.00 | 80 | 1011.6 |
| 20260902135503 | 62 | 203 | 4.0 | 13.0 | 0.00 | 0.00 | 0.00 | 77 | 1011.5 |
| 20260902135003 | 61 | 224 | 2.0 | 5.0 | 0.00 | 0.00 | 0.00 | 81 | 1011.5 |
| 20260902134714 | 61 | 235 | 2.0 | 6.0 | 0.00 | 0.00 | 0.00 | 81 | 1011.6 |
| 20260902134003 | 61 | 222 | 2.0 | 7.0 | 0.00 | 0.00 | 0.00 | 82 | 1011.7 |
| 20260902133503 | 60 | 229 | 2.0 | 7.0 | 0.00 | 0.00 | 0.00 | 82 | 1011.6 |
| 20260902133213 | 60 | 226 | 3.0 | 7.0 | 0.00 | 0.00 | 0.00 | 82 | 1011.7 |
| 20260902132714 | 60 | 243 | 3.0 | 8.0 | 0.00 | 0.00 | 0.00 | 84 | 1011.7 |
| 20260902132003 | 61 | 261 | 2.0 | 8.0 | 0.00 | 0.00 | 0.00 | 82 | 1011.8 |
| 20260902131503 | 61 | 229 | 3.0 | 7.0 | 0.00 | 0.00 | 0.00 | 81 | 1011.7 |
| 20260902131003 | 61 | 238 | 3.0 | 7.0 | 0.00 | 0.00 | 0.00 | 80 | 1011.8 |
| 20260902130714 | 62 | 249 | 3.0 | 7.0 | 0.00 | 0.00 | 0.00 | 80 | 1011.8 |
| 20260902130213 | 62 | 246 | 3.0 | 7.0 | 0.00 | 0.00 | 0.00 | 80 | 1011.7 |
| 20260902125504 | 63 | 245 | 3.0 | 7.0 | 0.00 | 0.00 | 0.00 | 78 | 1011.8 |
| 20260902125003 | 63 | 235 | 3.0 | 9.0 | 0.00 | 0.00 | 0.00 | 78 | 1011.7 |
| 20260902124504 | 63 | 229 | 3.0 | 9.0 | 0.00 | 0.00 | 0.00 | 79 | 1011.8 |
| 20260902124003 | 62 | 242 | 3.0 | 9.0 | 0.00 | 0.00 | 0.00 | 78 | 1011.8 |
| 20260902123503 | 62 | 230 | 3.0 | 7.0 | 0.00 | 0.00 | 0.00 | 76 | 1011.8 |
| 20260902123004 | 62 | 224 | 3.0 | 8.0 | 0.00 | 0.00 | 0.00 | 75 | 1011.7 |
| 20260902122503 | 63 | 234 | 3.0 | 8.0 | 0.00 | 0.00 | 0.00 | 74 | 1011.7 |
| 20260902122003 | 62 | 235 | 3.0 | 11.0 | 0.00 | 0.00 | 0.00 | 76 | 1011.8 |
| 20260902121503 | 62 | 226 | 4.0 | 11.0 | 0.00 | 0.00 | 0.00 | 75 | 1011.6 |
| 20260902121212 | 62 | 217 | 4.0 | 11.0 | 0.00 | 0.00 | 0.00 | 75 | 1011.9 |
| 20260902120503 | 63 | 206 | 3.0 | 8.0 | 0.00 | 0.00 | 0.00 | 73 | 1011.9 |
| 20260902120003 | 62 | 219 | 3.0 | 8.0 | 0.00 | 0.00 | 0.00 | 74 | 1011.7 |
| 20260902115504 | 62 | 234 | 3.0 | 7.0 | 0.00 | 0.00 | 0.00 | 75 | 1012.0 |
| 20260902115214 | 63 | 231 | 3.0 | 7.0 | 0.00 | 0.00 | 0.00 | 75 | 1011.9 |
| 20260902114503 | 63 | 231 | 3.0 | 7.0 | 0.00 | 0.00 | 0.00 | 75 | 1011.9 |
| 20260902114214 | 62 | 225 | 3.0 | 7.0 | 0.00 | 0.00 | 0.00 | 75 | 1011.9 |
| 20260902113503 | 61 | 243 | 3.0 | 7.0 | 0.00 | 0.00 | 0.00 | 77 | 1011.9 |
| 20260902113003 | 62 | 223 | 3.0 | 6.0 | 0.00 | 0.00 | 0.00 | 76 | 1011.9 |
| 20260902112503 | 62 | 214 | 3.0 | 7.0 | 0.00 | 0.00 | 0.00 | 77 | 1011.9 |
| 20260902112003 | 61 | 225 | 3.0 | 7.0 | 0.00 | 0.00 | 0.00 | 78 | 1012.0 |
| 20260902111503 | 62 | 223 | 3.0 | 7.0 | 0.00 | 0.00 | 0.00 | 78 | 1012.1 |
| 20260902111003 | 62 | 221 | 3.0 | 7.0 | 0.00 | 0.00 | 0.00 | 78 | 1012.0 |
| 20260902110503 | 62 | 224 | 3.0 | 6.0 | 0.00 | 0.00 | 0.00 | 78 | 1011.9 |
| 20260902110005 | 62 | 212 | 3.0 | 7.0 | 0.00 | 0.00 | 0.00 | 78 | 1012.0 |
| 20260902105504 | 62 | 214 | 3.0 | 7.0 | 0.00 | 0.00 | 0.00 | 78 | 1012.0 |
| 20260902105214 | 61 | 221 | 3.0 | 7.0 | 0.00 | 0.00 | 0.00 | 77 | 1012.1 |
| 20260902104504 | 62 | 233 | 3.0 | 6.0 | 0.00 | 0.00 | 0.00 | 76 | 1012.1 |
| 20260902104004 | 64 | 256 | 2.0 | 9.0 | 0.00 | 0.00 | 0.00 | 73 | 1012.1 |
| 20260902103713 | 65 | 240 | 3.0 | 12.0 | 0.00 | 0.00 | 0.00 | 75 | 1012.0 |
| 20260902103003 | 62 | 215 | 5.0 | 12.0 | 0.00 | 0.00 | 0.00 | 78 | 1012.2 |
| 20260902102503 | 61 | 201 | 5.0 | 12.0 | 0.00 | 0.00 | 0.00 | 80 | 1011.9 |
| 20260902102003 | 60 | 205 | 5.0 | 12.0 | 0.00 | 0.00 | 0.00 | 81 | 1011.9 |
| 20260902101503 | 62 | 206 | 5.0 | 12.0 | 0.00 | 0.00 | 0.00 | 81 | 1012.1 |
| 20260902101003 | 63 | 207 | 5.0 | 11.0 | 0.00 | 0.00 | 0.00 | 80 | 1012.0 |
| 20260902100713 | 62 | 206 | 5.0 | 14.0 | 0.00 | 0.00 | 0.00 | 82 | 1011.9 |
| 20260902100214 | 63 | 209 | 5.0 | 14.0 | 0.00 | 0.00 | 0.00 | 80 | 1012.0 |
| 20260902095503 | 63 | 201 | 5.0 | 13.0 | 0.00 | 0.00 | 0.00 | 79 | 1011.9 |
| 20260902095004 | 63 | 200 | 5.0 | 13.0 | 0.00 | 0.00 | 0.00 | 79 | 1011.9 |
| 20260902094503 | 63 | 216 | 4.0 | 9.0 | 0.00 | 0.00 | 0.00 | 79 | 1012.1 |
| 20260902094214 | 62 | 232 | 4.0 | 11.0 | 0.00 | 0.00 | 0.00 | 79 | 1012.0 |
| 20260902093503 | 62 | 225 | 3.0 | 11.0 | 0.00 | 0.00 | 0.00 | 82 | 1012.1 |
| 20260902093003 | 61 | 215 | 3.0 | 10.0 | 0.00 | 0.00 | 0.00 | 83 | 1011.8 |
| 20260902092504 | 61 | 219 | 3.0 | 8.0 | 0.00 | 0.00 | 0.00 | 84 | 1012.0 |
| 20260902092003 | 61 | 214 | 4.0 | 10.0 | 0.00 | 0.00 | 0.00 | 85 | 1011.9 |
| 20260902091714 | 62 | 197 | 5.0 | 10.0 | 0.00 | 0.00 | 0.00 | 85 | 1012.0 |
| 20260902091213 | 61 | 202 | 5.0 | 12.0 | 0.00 | 0.00 | 0.00 | 85 | 1011.8 |
| 20260902090503 | 61 | 197 | 4.0 | 12.0 | 0.00 | 0.00 | 0.00 | 87 | 1012.0 |
| 20260902090213 | 61 | 192 | 4.0 | 11.0 | 0.00 | 0.00 | 0.00 | 87 | 1011.9 |
| 20260902085503 | 60 | 207 | 4.0 | 11.0 | 0.00 | 0.00 | 0.00 | 88 | 1012.0 |
| 20260902085213 | 60 | 218 | 4.0 | 10.0 | 0.00 | 0.00 | 0.00 | 88 | 1011.9 |
| 20260902084503 | 60 | 203 | 4.0 | 9.0 | 0.00 | 0.00 | 0.00 | 89 | 1012.1 |
| 20260902084003 | 60 | 209 | 4.0 | 11.0 | 0.00 | 0.00 | 0.00 | 89 | 1012.0 |
| 20260902083504 | 60 | 220 | 3.0 | 11.0 | 0.00 | 0.00 | 0.00 | 88 | 1011.9 |
| 20260902083213 | 60 | 224 | 4.0 | 11.0 | 0.00 | 0.00 | 0.00 | 88 | 1011.8 |
| 20260902082503 | 60 | 205 | 5.0 | 9.0 | 0.00 | 0.00 | 0.00 | 89 | 1011.9 |
| 20260902082003 | 59 | 188 | 5.0 | 8.0 | 0.00 | 0.00 | 0.00 | 91 | 1011.9 |
| 20260902081714 | 59 | 194 | 5.0 | 9.0 | 0.00 | 0.00 | 0.00 | 92 | 1011.7 |
| 20260902081003 | 59 | 211 | 4.0 | 10.0 | 0.00 | 0.00 | 0.00 | 92 | 1011.9 |
| 20260902080503 | 58 | 214 | 4.0 | 10.0 | 0.00 | 0.00 | 0.00 | 92 | 1012.1 |
| 20260902080213 | 59 | 214 | 4.0 | 8.0 | 0.00 | 0.00 | 0.00 | 92 | 1011.8 |
| 20260902075504 | 58 | 191 | 4.0 | 8.0 | 0.00 | 0.00 | 0.00 | 93 | 1012.0 |
| 20260902075004 | 58 | 186 | 4.0 | 7.0 | 0.00 | 0.00 | 0.00 | 93 | 1012.0 |
| 20260902074503 | 58 | 203 | 4.0 | 9.0 | 0.00 | 0.00 | 0.00 | 94 | 1011.9 |
| 20260902074213 | 58 | 200 | 4.0 | 9.0 | 0.00 | 0.00 | 0.00 | 95 | 1011.9 |
| 20260902073714 | 58 | 203 | 4.0 | 9.0 | 0.00 | 0.00 | 0.00 | 96 | 1012.0 |
| 20260902073215 | 57 | 194 | 4.0 | 6.0 | 0.00 | 0.00 | 0.00 | 97 | 1011.8 |
| 20260902072714 | 57 | 183 | 4.0 | 9.0 | 0.00 | 0.00 | 0.00 | 97 | 1011.9 |
| 20260902072003 | 57 | 183 | 4.0 | 9.0 | 0.00 | 0.00 | 0.00 | 97 | 1012.0 |
| 20260902071503 | 57 | 194 | 4.0 | 8.0 | 0.00 | 0.00 | 0.00 | 97 | 1011.8 |
| 20260902071004 | 57 | 203 | 3.0 | 7.0 | 0.00 | 0.00 | 0.00 | 98 | 1012.0 |
| 20260902070503 | 56 | 196 | 3.0 | 7.0 | 0.00 | 0.00 | 0.00 | 98 | 1012.1 |
| 20260902070004 | 56 | 198 | 3.0 | 7.0 | 0.00 | 0.00 | 0.00 | 98 | 1012.0 |
| 20260902065503 | 56 | 197 | 3.0 | 9.0 | 0.00 | 0.00 | 0.00 | 98 | 1012.1 |
| 20260902065212 | 56 | 187 | 3.0 | 9.0 | 0.00 | 0.00 | 0.00 | 98 | 1012.0 |
| 20260902064713 | 56 | 184 | 4.0 | 9.0 | 0.00 | 0.00 | 0.00 | 98 | 1012.1 |
| 20260902064004 | 56 | 191 | 4.0 | 9.0 | 0.00 | 0.00 | 0.00 | 98 | 1011.8 |
| 20260902063503 | 56 | 182 | 4.0 | 9.0 | 0.00 | 0.00 | 0.00 | 98 | 1012.0 |
| 20260902063003 | 56 | 178 | 4.0 | 9.0 | 0.00 | 0.00 | 0.00 | 99 | 1012.1 |